Flag for United Arab Emirates Weather past 2 weeks in Al Ain, Abu Dhabi, United Arab Emirates

Now
95 °F

Sunny.


Feels Like: 91 °F
Forecast: 85 / 106 °F
Wind: 13 mph from Southwest

Location: Al Ain International Airport

Current Time: May 6, 2015 at 10:30:30 AM

Latest Report: May 6, 2015 at 10:00 AM


Visibility: 10 mi

Pressure: 29.80 "Hg

Humidity: 19%

Dew point: 46 °F

Location of Al AinLocation

Historic Weather in Al Ain — Graph

°F

Al Ain temperature yesterday

Maximum temperature yesterday: 99 °F (at 1:00 PM)
Minimum temperature yesterday: 88 °F (at 4:00 AM)
Average temperature yesterday: 93 °F

Past Weeks' High & Low Weather Summary

 TemperatureHumidityPressure
High108 °F (May 3, 3:00 PM)94% (Apr 26, 2:00 AM)29.98 "Hg (Apr 26, 2:00 AM)
Low68 °F (Apr 22, 3:00 AM)3% (May 1, 2:00 PM)29.71 "Hg (May 4, 3:00 PM)
Average89 °F26%29.85 "Hg
* Reported Apr 21 9:00 AM — May 6 9:00 AM, Al Ain, Weather by CustomWeather, © 2015

Note: Actual official high and low records may vary slightly from our data, if they occured in-between our weather recording intervals... More about our weather records

Advertising

Al Ain weather history for previous 24 hours

 ConditionsComfort  
Time TempWeatherWind HumidityBarometerVisibility
9:00 AM
Wed, May 6
93 °FSunny.10 mph21%29.80 "Hg10 mi
8:00 AM90 °FClear.7 mph26%29.77 "Hg5 mi
7:00 AM90 °FClear.8 mph27%29.77 "Hg5 mi
6:00 AM88 °FLight rain. Clear.6 mph31%29.74 "Hg4 mi
5:00 AM90 °FClear.7 mph29%29.71 "Hg10 mi
4:00 AM90 °FClear.7 mph29%29.71 "Hg10 mi
3:00 AM88 °FClear.7 mph29%29.71 "Hg10 mi
2:00 AM88 °FClear.9 mph29%29.71 "Hg10 mi
1:00 AM88 °FClear.7 mph29%29.77 "Hg10 mi
12:00 AM88 °FClear.6 mph29%29.80 "Hg10 mi
11:00 PM
Tue, May 5
90 °FClear.6 mph27%29.83 "Hg10 mi
10:00 PM90 °FClear.10 mph27%29.83 "Hg5 mi
9:00 PM91 °FClear.8 mph21%29.83 "Hg5 mi
8:00 PM93 °FClear.9 mph20%29.80 "Hg5 mi
7:00 PM95 °FClear.15 mph19%29.77 "Hg5 mi
6:00 PM97 °FClear.16 mph19%29.77 "Hg5 mi
5:00 PM97 °FClear.15 mph19%29.74 "Hg4 mi
4:00 PM99 °FLow level haze.20 mph19%29.77 "Hg3 mi
3:00 PM99 °FClear.13 mph19%29.77 "Hg5 mi
2:00 PM99 °FClear.7 mph18%29.77 "Hg5 mi
1:00 PM99 °FClear.6 mph16%29.80 "Hg5 mi
12:00 PM97 °FClear.2 mph20%29.83 "Hg4 mi
11:00 AM95 °FClear.5 mph23%29.83 "Hg4 mi
10:00 AM91 °FClear.9 mph26%29.83 "Hg4 mi
Weather by CustomWeather, © 2015

See weather overviewHow to use our weather pages